Location: Arcones
(41.1182°N, 3.7238°W)
Time: 04:28:15
(UTC+00:00)

Cosmos 2098 Rocket - Pass Details

Date: 11 December 2025
Orbit: 350 x 865 km, 82.9° (Epoch: 13 January)

Event Time Altitude Azimuth Distance (km) Brightness Sun altitude
Rises 17:28:57 0° 196° (SSW) 2,618 6.9 -8.0°
Reaches altitude 10° 17:30:57 10° 201° (SSW) 1,814 6.1 -8.3°
Maximum altitude 17:34:54 58° 281° (W) 722 3.7 -9.0°
Drops below altitude 10° 17:39:37 10° 0° (N) 2,154 5.6 -9.8°
Sets 17:42:09 0° 4° (N) 3,164 6.4 -10.3°
